Погода в Артёме

Россия / Приморский край     43°21′17″N   132°11′08″E
темп.,
°C
ветер,
м/с
пор.,
м/с
влажн.,
%
обл.,
%
осадки,
мм/ч
давл.,
гПа
погр.,
м
13 мая, чт
чт1301:00+9ююв41186100 0.0 1015522
04:00+7юв249597 0.0 1015116
07:00+8ююв1493100 0.0 1015147
10:00+12ю5871100 0.0 1015619
13:00+12ююз5770100 0.0 1014631
16:00+12ююз5868100 0.0 1013570
19:00+10ю3874100 0.0 1013376
22:00+8ююв119157 0.2 101418
14 мая, пт
пт1401:00+8ю1187100 0.1 101510
04:00+7ю11899 0.1 101410
07:00+8в11887 0.0 101532
10:00+14ю227019 0.0 1015299
13:00+16ююз336596 0.0 1014387
16:00+14ю4770100 0.0 1013341
19:00+11ю3580100 0.0 1013192
22:00+10ю2690100 0.0 1014155
15 мая, сб
сб1501:00+12ююв4118991 0.0 1013462
04:00+12ю5129496 0.0 1011504
07:00+12ю41092100 0.0 1011444
10:00+15ю6107762 0.0 1010551
13:00+16ю6107323 0.0 1009477
16:00+15ююз487528 0.0 1008480
19:00+12зсз1296100 1.0 100989
22:00+11ссв51092100 5.0 1012472
16 мая, вс
вс1601:00+10с2493100 0.6 1011157
04:00+10с2392100 0.6 101063
07:00+10с2290100 0.0 101039
10:00+11ссз2288100 0.0 101046
13:00+10зюз1192100 0.6 101055
16:00+10ю1190100 1.9 1009245
19:00+11зсз0188100 0.1 1007222
22:00+9юз119590 0.1 100710
17 мая, пн
пн1701:00+8ю0096100 0.0 100610
04:00+7с1196100 0.0 100611
07:00+8ссв22897 0.0 100636
10:00+15ссз23620 0.0 1006330
13:00+20сз35462 0.0 10061505
16:00+21ссз36378 0.0 10061718
19:00+18ююз2258100 0.0 100719
22:00+12юв1170100 0.0 101010